Location: Cypress Hills Dark-Sky Preserve - CHICO
(49.6176°N, 110.2634°W)
Time: 03:09:09
(UTC-07:00)

Amateur Radio Satellites - All Passes

Search period start: 01 February 2015 02:39
Search period end: 02 February 2015 02:39
Location: Cypress Hills Dark-Sky Preserve - CHICO, 49.6176°N, 110.2634°W

Satellite Date Start Highest point End Downlink Frequencies (MHz)
Time Altitude Azimuth
ITAMSAT 1 01 Feb 02:45:19 02:50:33 66° 103° (ESE) 02:55:46 435.822/435.867
RS-15 01 Feb 02:46:22 02:51:34 16° 97° (E) 02:57:34 29.354- 29.394
BEESAT 3 01 Feb 02:49:51 02:53:57 62° 313° (NW) 02:58:06 437.485
AIST 2 01 Feb 02:50:40 02:54:52 60° 125° (SE) 02:59:08 435.215
DANDE 01 Feb 02:57:16 03:04:01 28° 84° (E) 03:10:55 436.750
M-CUBED/EXP-1 PRIME 01 Feb 03:01:14 03:04:55 41° 255° (WSW) 03:08:21 437.505
CUSAT 1 01 Feb 03:09:06 03:16:29 36° 88° (E) 03:23:43 437.405
AO-7 01 Feb 03:11:27 03:17:15 21° 86° (E) 03:23:22 29.400- 29.500
PCSat 01 Feb 03:19:17 03:23:36 25° 110° (ESE) 03:28:02 145.827
STARS 01 Feb 03:20:44 03:24:29 25° 267° (W) 03:28:11 437.465
AUBIESAT-1 01 Feb 03:32:38 03:35:39 22° 259° (W) 03:38:28 437.475
HORYU 2 01 Feb 03:34:41 03:38:58 44° 99° (E) 03:43:13 437.375
KKS-1 01 Feb 03:35:54 03:38:18 14° 274° (W) 03:40:32 437.445
MOZHAYETS 4 01 Feb 03:57:45 04:02:15 62° 73° (ENE) 04:06:48
ISS 01 Feb 03:58:04 04:00:01 15° 221° (SW) 04:01:54 145.825
Gurwin Techsat 1B 01 Feb 04:00:46 04:05:50 44° 293° (WNW) 04:10:52 435.225
Oscar 19 01 Feb 04:03:28 04:06:19 15° 306° (NW) 04:09:00 437.125/150
JAS-2 01 Feb 04:16:45 04:21:36 28° 93° (E) 04:27:03 435.910
BEESAT 2 01 Feb 04:18:40 04:21:48 20° 331° (NNW) 04:24:55 435.950
CUBESAT XI-V 01 Feb 04:24:50 04:26:59 13° 56° (ENE) 04:29:18 437.345
ITAMSAT 1 01 Feb 04:25:36 04:29:39 23° 301° (WNW) 04:33:37 435.822/435.867
GONETS M04 01 Feb 04:26:46 04:31:55 16° 315° (NW) 04:36:40
YUBILEINY 01 Feb 04:29:10 04:35:14 21° 51° (NE) 04:41:35 435.215
AIST 2 01 Feb 04:30:06 04:33:49 27° 326° (NW) 04:37:32 435.215
BEESAT 3 01 Feb 04:30:08 04:32:55 17° 335° (NNW) 04:35:38 437.485
DANDE 01 Feb 04:38:11 04:46:49 85° 282° (WNW) 04:55:16 436.750
PRISM 01 Feb 04:43:11 04:46:22 22° 63° (ENE) 04:49:38 437.425
CUSAT 1 01 Feb 04:50:47 04:59:14 67° 287° (WNW) 05:07:14 437.405
RS-15 01 Feb 04:51:08 05:01:45 63° 119° (ESE) 05:12:34 29.354- 29.394
PCSat 01 Feb 05:01:16 05:06:39 64° 309° (NW) 05:12:06 145.827
AO-7 01 Feb 05:03:04 05:11:28 84° 109° (ESE) 05:19:48 29.400- 29.500
HORYU 2 01 Feb 05:11:47 05:15:26 25° 297° (WNW) 05:19:00 437.375
Cubesat XI-IV 01 Feb 05:14:59 05:17:03 12° 83° (E) 05:19:23 437.490
CUTE-I 01 Feb 05:32:57 05:36:26 18° 87° (E) 05:40:06 437.470
MOZHAYETS 4 01 Feb 05:36:48 05:39:58 18° 271° (W) 05:43:02
STRAND 1 01 Feb 05:45:12 05:50:06 51° 69° (ENE) 05:55:06 437.568
CUBESAT XI-V 01 Feb 05:59:10 06:03:46 83° 75° (ENE) 06:08:27 437.345
BEESAT 2 01 Feb 06:00:53 06:01:35 10° 355° (N) 06:02:17 435.950
JAS-2 01 Feb 06:01:32 06:07:03 55° 290° (WNW) 06:13:11 435.910
AIST 2 01 Feb 06:12:10 06:13:50 12° 349° (NNW) 06:15:29 435.215
PRISM 01 Feb 06:17:47 06:21:42 42° 261° (W) 06:25:39 437.425
DANDE 01 Feb 06:24:20 06:31:30 27° 304° (NW) 06:38:11 436.750
YUBILEINY 01 Feb 06:25:10 06:33:59 74° 77° (ENE) 06:42:49 435.215
CUSAT 1 01 Feb 06:37:47 06:43:49 20° 308° (NW) 06:49:16 437.405
PCSat 01 Feb 06:47:10 06:51:10 20° 333° (NNW) 06:55:07 145.827
Cubesat XI-IV 01 Feb 06:52:46 06:58:11 77° 104° (ESE) 07:03:35 437.490
AO-7 01 Feb 06:56:32 07:03:33 31° 311° (NW) 07:10:23 29.400- 29.500
RS-15 01 Feb 07:03:48 07:14:30 55° 326° (NNW) 07:25:28 29.354- 29.394
CUTE-I 01 Feb 07:11:50 07:17:14 78° 287° (WNW) 07:22:37 437.470
HO-68 01 Feb 07:23:29 07:24:30 10° 78° (ENE) 07:26:04 435.675
STRAND 1 01 Feb 07:25:22 07:29:38 26° 268° (W) 07:33:50 437.568
BEESAT 2 01 Feb 07:39:25 07:41:33 14° 19° (NNE) 07:43:44 435.950
CUBESAT XI-V 01 Feb 07:39:37 07:41:58 13° 275° (W) 07:44:07 437.345
GOMX 1 01 Feb 07:45:54 07:47:41 12° 80° (E) 07:49:45 467.674
JAS-2 01 Feb 07:49:16 07:51:16 12° 309° (NW) 07:53:04 435.910
BEESAT 3 01 Feb 07:50:02 07:52:31 15° 22° (NNE) 07:55:05 437.485
AIST 2 01 Feb 07:52:30 07:54:16 12° 13° (NNE) 07:56:05 435.215
BRITE-PL 01 Feb 08:05:31 08:10:07 25° 89° (E) 08:14:40 437.365/2234.400
CUTE 1.7 + AOD 2 01 Feb 08:11:29 08:13:51 15° 87° (E) 08:16:22 437.475
PHONESAT 2.4 01 Feb 08:22:24 08:23:30 11° 159° (SSE) 08:24:38 2401.200-2431.200
YUBILEINY 01 Feb 08:22:49 08:30:09 30° 279° (W) 08:37:16 435.215
Cubesat XI-IV 01 Feb 08:33:49 08:37:47 21° 303° (WNW) 08:41:38 437.490
PCSat 01 Feb 08:34:33 08:36:46 12° 359° (N) 08:38:58 145.827
SEEDS 01 Feb 08:36:45 08:40:03 22° 92° (E) 08:43:24 437.485
VERMONT LUNAR 01 Feb 08:40:09 08:42:17 15° 168° (SSE) 08:44:27 437.305
CINEMA 3 01 Feb 08:41:24 08:43:54 14° 84° (E) 08:46:32 145.822/145.860
UNISAT 6 01 Feb 08:50:50 08:54:23 22° 62° (ENE) 08:58:00 437.425
AO-7 01 Feb 08:51:25 08:53:44 11° 336° (NNW) 08:55:49 29.400- 29.500
CUTE-I 01 Feb 08:53:22 08:56:35 16° 306° (NW) 08:59:36 437.470
COMPASS 1 01 Feb 08:58:10 09:01:52 30° 95° (E) 09:05:35 437.405
DELFI C3 01 Feb 08:59:33 09:00:55 12° 86° (E) 09:02:28 145.870
NANOSAT C BR1 01 Feb 09:03:54 09:06:38 17° 60° (ENE) 09:09:29 145.865
HO-68 01 Feb 09:07:06 09:14:07 55° 101° (E) 09:21:09 435.675
SO-50 01 Feb 09:16:19 09:19:49 22° 114° (ESE) 09:23:30 436.795
BEESAT 2 01 Feb 09:16:54 09:20:54 39° 41° (NE) 09:24:50 435.950
DOVE 4 01 Feb 09:17:56 09:23:02 51° 98° (E) 09:27:52 437.250
QB50P2 01 Feb 09:19:27 09:22:50 23° 63° (ENE) 09:26:18 145.880/145.840
RS-15 01 Feb 09:19:44 09:29:44 37° 359° (N) 09:40:05 29.354- 29.394
GOMX 1 01 Feb 09:21:29 09:26:58 73° 101° (E) 09:32:09 467.674
AAUSAT CUBESAT 2 01 Feb 09:21:40 09:25:41 46° 98° (E) 09:29:42 437.432
BUGSAT 1 01 Feb 09:21:57 09:24:52 19° 61° (ENE) 09:27:54 437.445
CANX-2 01 Feb 09:22:23 09:26:39 80° 102° (ESE) 09:30:52 2200.000
ZACube-1 01 Feb 09:23:36 09:25:54 14° 86° (E) 09:28:22 437.345
ANTELSAT 01 Feb 09:26:02 09:30:28 43° 69° (ENE) 09:34:53 437.575/2403.000
DX 1 01 Feb 09:26:34 09:29:23 17° 89° (E) 09:32:20 434.975-435.025
QB50P1 01 Feb 09:27:18 09:30:53 27° 65° (ENE) 09:34:34 145.935-145.965
BEESAT 3 01 Feb 09:27:30 09:31:36 51° 44° (NE) 09:35:39 437.485
CUBEBUG 2 01 Feb 09:30:03 09:33:40 23° 90° (E) 09:37:16 437.445
AIST 2 01 Feb 09:30:26 09:34:14 29° 36° (NE) 09:38:01 435.215
TIGRISAT 01 Feb 09:31:39 09:36:10 47° 69° (ENE) 09:40:38 435.000
FUNcube-1 01 Feb 09:33:56 09:36:52 18° 88° (E) 09:39:52 145.935
BRITE-PL 01 Feb 09:43:27 09:49:04 60° 289° (WNW) 09:54:25 437.365/2234.400
POLYITAN 1 01 Feb 09:43:56 09:47:56 38° 68° (ENE) 09:51:59 437.675
CUTE 1.7 + AOD 2 01 Feb 09:46:06 09:50:19 65° 287° (WNW) 09:54:28 437.475
PHONESAT 2.4 01 Feb 09:58:38 10:01:15 19° 176° (S) 10:03:54 2401.200-2431.200
Oscar 11 01 Feb 09:59:27 10:03:44 57° 100° (E) 10:07:58 145.826/435.025
AIST 1 01 Feb 10:00:58 10:02:52 13° 84° (E) 10:04:56
POPSAT HIP 1 01 Feb 10:01:51 10:06:03 55° 71° (ENE) 10:10:18 437.405
DUCHIFAT 1 01 Feb 10:02:26 10:06:37 55° 71° (ENE) 10:10:51 145.980
UWE-3 01 Feb 10:02:29 10:06:44 39° 96° (E) 10:10:51 435.000/436.395/437.385
AISAT 01 Feb 10:07:05 10:10:12 18° 89° (E) 10:13:24 437.250
SEEDS 01 Feb 10:12:07 10:16:06 41° 290° (WNW) 10:20:02 437.485
CINEMA 3 01 Feb 10:16:59 10:21:54 82° 285° (WNW) 10:26:32 145.822/145.860
VERMONT LUNAR 01 Feb 10:17:12 10:19:40 18° 185° (S) 10:22:08 437.305
PCSat 01 Feb 10:18:40 10:22:25 19° 25° (NNE) 10:26:13 145.827
ESTCUBE 1 01 Feb 10:21:52 10:23:35 12° 85° (E) 10:25:33 437.505/2401.250
UNISAT 6 01 Feb 10:26:14 10:30:53 56° 260° (W) 10:35:29 437.425
CUBEBUG 1 01 Feb 10:31:56 10:34:14 14° 87° (E) 10:36:42 437.445
GONETS M04 01 Feb 10:32:08 10:38:58 26° 56° (NE) 10:46:01
DELFI C3 01 Feb 10:32:43 10:36:47 78° 286° (WNW) 10:40:49 145.870
VELOX 1 01 Feb 10:32:56 10:36:55 30° 95° (E) 10:40:55 145.980
COMPASS 1 01 Feb 10:33:54 10:37:36 30° 293° (WNW) 10:41:14 437.405
HUMSAT D 01 Feb 10:34:36 10:38:35 38° 97° (E) 10:42:30 437.325/437.525
UKube-1 01 Feb 10:36:41 10:41:05 75° 104° (ESE) 10:45:27 .
NANOSAT C BR1 01 Feb 10:37:49 10:42:04 66° 258° (WSW) 10:46:23 145.865
QB50P2 01 Feb 10:54:24 10:58:32 45° 262° (W) 11:02:43 145.880/145.840
HO-68 01 Feb 10:55:10 11:01:41 38° 301° (WNW) 11:08:07 435.675
BEESAT 2 01 Feb 10:55:17 10:59:04 32° 241° (WSW) 11:02:45 435.950
SO-50 01 Feb 10:55:22 10:59:59 65° 314° (NW) 11:04:46 436.795
BUGSAT 1 01 Feb 10:55:58 11:00:02 54° 260° (W) 11:04:11 437.445
DOVE 4 01 Feb 10:56:08 11:00:31 27° 298° (WNW) 11:04:41 437.250
AAUSAT CUBESAT 2 01 Feb 10:57:55 11:01:08 21° 296° (WNW) 11:04:13 437.432
ZACube-1 01 Feb 10:58:29 11:02:56 72° 286° (WNW) 11:07:14 437.345
CANX-2 01 Feb 10:59:46 11:02:04 14° 301° (WNW) 11:04:13 2200.000
GOMX 1 01 Feb 11:00:27 11:04:33 22° 301° (WNW) 11:08:25 467.674
DX 1 01 Feb 11:01:44 11:06:07 62° 288° (WNW) 11:10:27 434.975-435.025
QB50P1 01 Feb 11:02:40 11:06:40 38° 263° (W) 11:10:43 145.935-145.965
ANTELSAT 01 Feb 11:03:25 11:07:26 27° 267° (W) 11:11:22 437.575/2403.000
BEESAT 3 01 Feb 11:06:08 11:09:30 23° 244° (WSW) 11:12:47 437.485
CUBEBUG 2 01 Feb 11:06:16 11:10:40 45° 291° (WNW) 11:14:53 437.445
AIST 2 01 Feb 11:08:54 11:13:07 53° 237° (WSW) 11:17:13 435.215
TIGRISAT 01 Feb 11:09:15 11:13:09 24° 268° (W) 11:16:56 435.000
FUNcube-1 01 Feb 11:09:18 11:13:41 57° 288° (WNW) 11:17:54 145.935
50 SAT 01 Feb 11:14:15 11:18:19 75° 102° (ESE) 11:22:20 437.505
POLYITAN 1 01 Feb 11:20:20 11:24:01 26° 267° (W) 11:27:39 437.675
BRITE-PL 01 Feb 11:23:54 11:26:30 13° 309° (NW) 11:28:52 437.365/2234.400
RS-15 01 Feb 11:34:18 11:45:08 52° 31° (NNE) 11:56:29 29.354- 29.394
AIST 1 01 Feb 11:35:45 11:40:00 72° 281° (WNW) 11:44:18
Oscar 11 01 Feb 11:36:29 11:39:34 19° 298° (WNW) 11:42:33 145.826/435.025
PHONESAT 2.4 01 Feb 11:36:46 11:39:06 16° 192° (SSW) 11:41:25 2401.200-2431.200
SPROUT 01 Feb 11:39:02 11:41:57 18° 89° (E) 11:44:58 437.525
POPSAT HIP 1 01 Feb 11:39:19 11:42:21 18° 271° (W) 11:45:17 437.405
UWE-3 01 Feb 11:39:19 11:43:09 27° 296° (WNW) 11:46:50 435.000/436.395/437.385
DUCHIFAT 1 01 Feb 11:39:52 11:42:53 18° 271° (W) 11:45:47 145.980
AISAT 01 Feb 11:42:47 11:47:15 59° 289° (WNW) 11:51:41 437.250
CINEMA 3 01 Feb 11:55:47 11:58:21 14° 305° (NW) 12:00:42 145.822/145.860
VERMONT LUNAR 01 Feb 11:56:18 11:56:58 10° 201° (SSW) 11:57:36 437.305
ESTCUBE 1 01 Feb 11:56:39 12:01:14 88° 282° (WNW) 12:05:48 437.505/2401.250
PCSat 01 Feb 12:01:41 12:07:03 56° 48° (NE) 12:12:24 145.827
TISAT 1 01 Feb 12:03:31 12:07:14 28° 94° (E) 12:11:00 437.305
Oscar 19 01 Feb 12:05:02 12:09:47 38° 66° (ENE) 12:14:36 437.125/150
CUBEBUG 1 01 Feb 12:06:45 12:11:14 76° 286° (WNW) 12:15:41 437.445
VELOX 1 01 Feb 12:09:26 12:13:33 35° 294° (WNW) 12:17:38 145.980
Gurwin Techsat 1B 01 Feb 12:09:44 12:12:24 14° 53° (NE) 12:15:16 435.225
DELFI C3 01 Feb 12:10:33 12:11:23 10° 303° (WNW) 12:12:03 145.870
HUMSAT D 01 Feb 12:10:42 12:14:15 25° 295° (WNW) 12:17:40 437.325/437.525
UKube-1 01 Feb 12:14:02 12:16:46 16° 301° (WNW) 12:19:21 .
AO-7 01 Feb 12:27:19 12:31:36 16° 34° (NNE) 12:36:10 29.400- 29.500
GONETS M04 01 Feb 12:28:28 12:37:14 89° 256° (WSW) 12:45:57
ITAMSAT 1 01 Feb 12:29:39 12:33:51 26° 61° (ENE) 12:38:09 435.822/435.867
SWISSCUBE 01 Feb 12:30:45 12:32:02 11° 84° (E) 12:33:37 437.505
ZACube-1 01 Feb 12:37:10 12:38:33 11° 305° (NW) 12:39:44 437.345
SO-50 01 Feb 12:37:53 12:41:27 20° 337° (NNW) 12:45:02 436.795
BEESAT 01 Feb 12:44:52 12:47:21 14° 86° (E) 12:50:03 436.000
HO-68 01 Feb 12:45:33 12:47:35 11° 324° (NW) 12:49:20 435.675
ITUPSAT 1 01 Feb 12:50:43 12:53:36 16° 87° (E) 12:56:39 437.325
50 SAT 01 Feb 12:50:45 12:52:56 14° 301° (WNW) 12:54:59 437.505
HORYU 2 01 Feb 13:04:16 13:05:41 12° 55° (NE) 13:07:17 437.375
SPROUT 01 Feb 13:14:10 13:18:28 57° 288° (WNW) 13:22:43 437.525
ESTCUBE 1 01 Feb 13:35:06 13:37:31 14° 303° (WNW) 13:39:46 437.505/2401.250
DANDE 01 Feb 13:36:29 13:41:44 23° 53° (NE) 13:46:08 436.750
TISAT 1 01 Feb 13:39:12 13:43:09 35° 293° (WNW) 13:47:01 437.305
Oscar 19 01 Feb 13:44:25 13:49:12 35° 264° (W) 13:53:57 437.125/150
CUBEBUG 1 01 Feb 13:45:11 13:46:55 12° 304° (NW) 13:48:28 437.445
PCSat 01 Feb 13:45:33 13:50:14 30° 248° (WSW) 13:54:50 145.827
KKS-1 01 Feb 13:45:40 13:47:04 11° 85° (E) 13:48:41 437.445
Gurwin Techsat 1B 01 Feb 13:46:18 13:51:35 73° 73° (ENE) 13:56:55 435.225
CUSAT 1 01 Feb 13:46:33 13:51:54 28° 58° (ENE) 13:56:12 437.405
RS-15 01 Feb 13:47:05 13:58:18 71° 238° (WSW) 14:09:59 29.354- 29.394
SWISSCUBE 01 Feb 14:06:00 14:10:50 80° 104° (ESE) 14:15:38 437.505
ITAMSAT 1 01 Feb 14:07:59 14:13:05 55° 260° (W) 14:18:13 435.822/435.867
AO-7 01 Feb 14:14:43 14:22:29 46° 57° (ENE) 14:30:19 29.400- 29.500
BEESAT 01 Feb 14:21:07 14:25:56 82° 286° (WNW) 14:30:42 436.000
SO-50 01 Feb 14:21:17 14:23:46 14° 1° (N) 14:26:17 436.795
GONETS M04 01 Feb 14:26:37 14:33:00 23° 282° (WNW) 14:39:04
ITUPSAT 1 01 Feb 14:27:19 14:32:08 74° 287° (WNW) 14:36:55 437.325
JAS-2 01 Feb 14:35:57 14:39:25 19° 57° (ENE) 14:43:01 435.910
HORYU 2 01 Feb 14:37:09 14:41:38 72° 73° (ENE) 14:46:08 437.375
STARS 01 Feb 15:05:28 15:09:45 44° 98° (E) 15:14:01 437.465
AUBIESAT-1 01 Feb 15:10:41 15:11:31 11° 95° (E) 15:12:32 437.475
DANDE 01 Feb 15:19:32 15:26:16 72° 263° (W) 15:31:11 436.750
KKS-1 01 Feb 15:19:59 15:24:31 88° 105° (ESE) 15:29:00 437.445
Gurwin Techsat 1B 01 Feb 15:28:25 15:32:12 19° 272° (W) 15:35:51 435.225
CUSAT 1 01 Feb 15:29:28 15:35:27 49° 267° (W) 15:39:52 437.405
SWISSCUBE 01 Feb 15:45:02 15:48:10 17° 302° (WNW) 15:51:10 437.505
MOZHAYETS 4 01 Feb 15:51:06 15:52:06 11° 83° (E) 15:53:22
BEESAT 01 Feb 16:00:35 16:03:07 14° 305° (NW) 16:05:29 436.000
RS-15 01 Feb 16:01:09 16:08:57 20° 260° (W) 16:16:18 29.354- 29.394
SO-50 01 Feb 16:02:17 16:06:03 22° 25° (NNE) 16:09:54 436.795
O/OREOS (USA 219) 01 Feb 16:03:27 16:07:55 71° 114° (ESE) 16:12:28 437.305
AO-7 01 Feb 16:07:02 16:15:13 54° 259° (WSW) 16:23:24 29.400- 29.500
ITUPSAT 1 01 Feb 16:07:05 16:09:18 13° 306° (NW) 16:11:21 437.325
M-CUBED/EXP-1 PRIME 01 Feb 16:13:30 16:16:49 65° 109° (ESE) 16:20:14 437.505
HORYU 2 01 Feb 16:16:12 16:18:53 15° 272° (W) 16:21:26 437.375
JAS-2 01 Feb 16:18:46 16:24:05 76° 256° (WSW) 16:29:18 435.910
Cubesat XI-IV 01 Feb 16:40:16 16:44:55 32° 63° (ENE) 16:49:41 437.490
STARS 01 Feb 16:42:23 16:46:03 25° 297° (WNW) 16:49:37 437.465
AUBIESAT-1 01 Feb 16:43:36 16:46:54 60° 292° (WNW) 16:50:16 437.475
KKS-1 01 Feb 16:58:06 17:00:35 14° 303° (WNW) 17:02:55 437.445
CUTE-I 01 Feb 16:58:42 17:03:42 43° 66° (ENE) 17:08:47 437.470
DANDE 01 Feb 17:05:40 17:08:04 12° 287° (WNW) 17:09:58 436.750
MOZHAYETS 4 01 Feb 17:25:36 17:30:12 82° 103° (ESE) 17:34:47
YUBILEINY 01 Feb 17:39:31 17:44:20 17° 73° (ENE) 17:49:35 435.215
SO-50 01 Feb 17:42:31 17:47:26 71° 46° (NE) 17:52:22 436.795
O/OREOS (USA 219) 01 Feb 17:44:29 17:47:53 20° 315° (NW) 17:51:15 437.305
M-CUBED/EXP-1 PRIME 01 Feb 17:50:03 17:51:28 12° 305° (NW) 17:52:48 437.505
CUBESAT XI-V 01 Feb 17:52:43 17:55:32 16° 87° (E) 17:58:32 437.345
STRAND 1 01 Feb 17:53:18 17:55:08 12° 84° (E) 17:57:14 437.568
HO-68 01 Feb 17:56:01 18:00:22 18° 45° (NE) 18:04:56 435.675
PRISM 01 Feb 17:56:45 17:59:45 19° 91° (E) 18:02:51 437.425
AO-7 01 Feb 18:07:42 18:10:21 11° 282° (WNW) 18:12:20 29.400- 29.500
JAS-2 01 Feb 18:09:07 18:10:22 11° 278° (W) 18:11:17 435.910
Cubesat XI-IV 01 Feb 18:19:50 18:24:55 45° 262° (W) 18:30:04 437.490
CUTE-I 01 Feb 18:39:10 18:43:57 32° 266° (W) 18:48:43 437.470
CANX-2 01 Feb 18:46:12 18:48:22 14° 59° (ENE) 18:50:41 2200.000
DOVE 4 01 Feb 18:52:24 18:55:22 16° 55° (NE) 18:58:31 437.250
GOMX 1 01 Feb 18:57:03 19:00:59 22° 59° (ENE) 19:05:09 467.674
MOZHAYETS 4 01 Feb 19:04:10 19:06:54 15° 302° (WNW) 19:09:30
CUTE 1.7 + AOD 2 01 Feb 19:08:40 19:11:47 20° 63° (ENE) 19:14:59 437.475
BRITE-PL 01 Feb 19:20:01 19:24:57 41° 67° (ENE) 19:30:14 437.365/2234.400
SO-50 01 Feb 19:23:50 19:27:37 22° 246° (WSW) 19:31:17 436.795
Oscar 11 01 Feb 19:25:42 19:27:08 12° 56° (ENE) 19:28:44 145.826/435.025
CUBESAT XI-V 01 Feb 19:28:52 19:33:34 72° 287° (WNW) 19:38:17 437.345
STRAND 1 01 Feb 19:30:08 19:35:20 78° 105° (ESE) 19:40:30 437.568
YUBILEINY 01 Feb 19:31:05 19:39:42 72° 95° (E) 19:48:24 435.215
PRISM 01 Feb 19:31:33 19:35:34 48° 290° (WNW) 19:39:35 437.425
SEEDS 01 Feb 19:33:14 19:36:52 29° 66° (ENE) 19:40:34 437.485
HO-68 01 Feb 19:39:53 19:46:55 64° 67° (ENE) 19:54:00 435.675
CINEMA 3 01 Feb 19:46:38 19:50:36 24° 62° (ENE) 19:54:41 145.822/145.860
DELFI C3 01 Feb 19:51:59 19:54:17 15° 60° (ENE) 19:56:41 145.870
COMPASS 1 01 Feb 19:53:50 19:57:44 38° 69° (ENE) 20:01:39 437.405
UKube-1 01 Feb 20:01:55 20:04:31 16° 59° (ENE) 20:07:15 .
AAUSAT CUBESAT 2 01 Feb 20:16:52 20:20:59 56° 72° (ENE) 20:25:07 437.432
CANX-2 01 Feb 20:19:29 20:23:47 82° 256° (WSW) 20:28:06 2200.000
ZACube-1 01 Feb 20:23:27 20:26:57 22° 62° (ENE) 20:30:31 437.345
DX 1 01 Feb 20:26:13 20:29:51 26° 64° (ENE) 20:33:32 434.975-435.025
DOVE 4 01 Feb 20:27:09 20:32:21 79° 74° (ENE) 20:37:43 437.250
CUBEBUG 2 01 Feb 20:32:07 20:36:26 35° 67° (ENE) 20:40:47 437.445
GOMX 1 01 Feb 20:33:20 20:38:35 73° 258° (WSW) 20:44:06 467.674
FUNcube-1 01 Feb 20:33:41 20:37:29 26° 64° (ENE) 20:41:20 145.935
50 SAT 01 Feb 20:33:49 20:35:11 12° 58° (ENE) 20:36:43 437.505
ISS 01 Feb 20:40:04 20:42:22 18° 141° (SE) 20:44:43 145.825
CUTE 1.7 + AOD 2 01 Feb 20:43:14 20:47:26 52° 261° (W) 20:51:38 437.475
Oscar 11 01 Feb 20:58:18 21:02:39 78° 74° (ENE) 21:07:00 145.826/435.025
BRITE-PL 01 Feb 20:58:42 21:03:33 36° 267° (W) 21:08:40 437.365/2234.400
UWE-3 01 Feb 21:03:28 21:08:04 56° 71° (ENE) 21:12:42 435.000/436.395/437.385
CUBESAT XI-V 01 Feb 21:08:23 21:10:17 12° 305° (NW) 21:12:00 437.345
SEEDS 01 Feb 21:08:45 21:12:39 34° 265° (W) 21:16:31 437.485
AISAT 01 Feb 21:09:13 21:13:03 29° 64° (ENE) 21:16:57 437.250
STRAND 1 01 Feb 21:10:21 21:14:00 19° 303° (WNW) 21:17:32 437.568
CINEMA 3 01 Feb 21:22:33 21:27:29 57° 260° (W) 21:32:30 145.822/145.860
DELFI C3 01 Feb 21:25:01 21:29:05 69° 258° (WSW) 21:33:09 145.870
ESTCUBE 1 01 Feb 21:25:22 21:28:37 20° 61° (ENE) 21:31:59 437.505/2401.250
HO-68 01 Feb 21:28:56 21:35:11 31° 268° (W) 21:41:20 435.675
YUBILEINY 01 Feb 21:29:46 21:37:26 32° 299° (WNW) 21:44:59 435.215
COMPASS 1 01 Feb 21:30:04 21:33:36 25° 267° (W) 21:37:04 437.405
HUMSAT D 01 Feb 21:30:38 21:34:50 49° 71° (ENE) 21:39:03 437.325/437.525
CUBEBUG 1 01 Feb 21:32:16 21:35:31 21° 62° (ENE) 21:38:54 437.445
VELOX 1 01 Feb 21:34:50 21:39:06 47° 69° (ENE) 21:43:25 145.980
UKube-1 01 Feb 21:35:53 21:40:12 74° 257° (WSW) 21:44:35 .
AIST 1 01 Feb 21:38:25 21:42:37 44° 74° (ENE) 21:46:49
AAUSAT CUBESAT 2 01 Feb 21:54:14 21:57:03 17° 271° (W) 21:59:45 437.432
ZACube-1 01 Feb 21:58:29 22:03:01 55° 260° (W) 22:07:34 437.345
DX 1 01 Feb 22:01:50 22:05:58 40° 262° (W) 22:10:07 434.975-435.025
50 SAT 01 Feb 22:05:32 22:09:41 84° 75° (ENE) 22:13:50 437.505
DOVE 4 01 Feb 22:07:18 22:10:49 18° 275° (W) 22:14:14 437.250
CUBEBUG 2 01 Feb 22:08:46 22:13:09 34° 265° (W) 22:17:30 437.445
FUNcube-1 01 Feb 22:09:15 22:13:39 44° 262° (W) 22:18:04 145.935
UNISAT 6 01 Feb 22:14:46 22:18:14 22° 91° (E) 22:21:43 437.425
ISS 01 Feb 22:15:11 22:18:27 76° 160° (SSE) 22:21:46 145.825
GOMX 1 01 Feb 22:15:39 22:17:50 12° 280° (W) 22:19:45 467.674
NANOSAT C BR1 01 Feb 22:19:57 22:22:28 16° 88° (E) 22:25:09 145.865
BUGSAT 1 01 Feb 22:34:57 22:37:46 17° 89° (E) 22:40:42 437.445
QB50P2 01 Feb 22:36:02 22:39:25 22° 92° (E) 22:42:51 145.880/145.840
Oscar 11 01 Feb 22:37:17 22:39:28 13° 274° (W) 22:41:27 145.826/435.025
SPROUT 01 Feb 22:37:28 22:40:56 25° 64° (ENE) 22:44:31 437.525
UWE-3 01 Feb 22:41:24 22:44:59 21° 270° (W) 22:48:28 435.000/436.395/437.385
QB50P1 01 Feb 22:43:46 22:47:23 26° 93° (E) 22:51:02 145.935-145.965
AISAT 01 Feb 22:45:25 22:49:35 38° 263° (W) 22:53:48 437.250
ANTELSAT 01 Feb 22:50:34 22:54:54 48° 99° (E) 22:59:08 437.575/2403.000
TIGRISAT 01 Feb 22:55:53 23:00:16 53° 100° (E) 23:04:32 435.000
TISAT 1 01 Feb 23:00:06 23:04:02 38° 68° (ENE) 23:08:02 437.305
ESTCUBE 1 01 Feb 23:00:45 23:05:10 57° 259° (W) 23:09:38 437.505/2401.250
POLYITAN 1 01 Feb 23:01:03 23:05:07 38° 97° (E) 23:09:09 437.675
CUBEBUG 1 01 Feb 23:07:21 23:11:37 52° 260° (W) 23:15:57 437.445
HUMSAT D 01 Feb 23:07:37 23:10:56 20° 269° (W) 23:14:10 437.325/437.525
VELOX 1 01 Feb 23:12:24 23:15:57 22° 268° (W) 23:19:27 145.980
AIST 1 01 Feb 23:16:41 23:20:03 21° 272° (W) 23:23:18
POPSAT HIP 1 01 Feb 23:18:44 23:23:01 57° 100° (E) 23:27:15 437.405
DUCHIFAT 1 01 Feb 23:18:57 23:23:13 56° 100° (E) 23:27:26 145.980
SWISSCUBE 01 Feb 23:40:37 23:44:15 23° 61° (ENE) 23:48:00 437.505
GONETS M04 01 Feb 23:41:06 23:47:13 23° 78° (ENE) 23:53:40
50 SAT 01 Feb 23:44:03 23:45:28 11° 275° (W) 23:46:40 437.505
UNISAT 6 01 Feb 23:51:02 23:55:19 45° 291° (WNW) 23:59:28 437.425
ISS 01 Feb 23:51:47 23:55:03 58° 358° (N) 23:58:19 145.825
NANOSAT C BR1 01 Feb 23:54:34 23:58:51 64° 288° (WNW) 00:03:06 145.865
BEESAT 01 Feb 23:55:11 23:59:10 28° 63° (ENE) 00:03:14 436.000
ITUPSAT 1 02 Feb 00:01:30 00:05:38 31° 64° (ENE) 00:09:50 437.325
BUGSAT 1 02 Feb 00:09:27 00:13:41 58° 288° (WNW) 00:17:53 437.445
QB50P2 02 Feb 00:11:26 00:15:34 44° 291° (WNW) 00:19:38 145.880/145.840
SPROUT 02 Feb 00:12:44 00:16:52 42° 262° (W) 00:21:02 437.525
QB50P1 02 Feb 00:19:24 00:23:25 37° 292° (WNW) 00:27:22 145.935-145.965
ANTELSAT 02 Feb 00:27:57 00:31:27 22° 298° (WNW) 00:34:48 437.575/2403.000
O/OREOS (USA 219) 02 Feb 00:29:57 00:34:19 41° 55° (NE) 00:38:42 437.305
TIGRISAT 02 Feb 00:33:21 00:36:42 21° 299° (WNW) 00:39:55 435.000
STARS 02 Feb 00:34:14 00:35:18 11° 54° (NE) 00:36:34 437.465
TISAT 1 02 Feb 00:36:23 00:40:00 26° 267° (W) 00:43:34 437.305
POLYITAN 1 02 Feb 00:37:16 00:40:55 26° 296° (WNW) 00:44:30 437.675
KKS-1 02 Feb 00:47:25 00:50:36 20° 61° (ENE) 00:53:54 437.445
BEESAT 2 02 Feb 00:55:02 00:57:38 17° 113° (ESE) 01:00:21 435.950
POPSAT HIP 1 02 Feb 00:55:27 00:58:35 19° 299° (WNW) 01:01:36 437.405
DUCHIFAT 1 02 Feb 00:55:37 00:58:44 19° 299° (WNW) 01:01:45 145.980
BEESAT 3 02 Feb 01:04:10 01:07:22 22° 116° (ESE) 01:10:39 437.485
AIST 2 02 Feb 01:13:50 01:15:13 12° 110° (ESE) 01:16:48 435.215
SWISSCUBE 02 Feb 01:17:09 01:21:50 56° 259° (W) 01:26:32 437.505
ISS 02 Feb 01:28:22 01:31:41 89° 181° (S) 01:35:00 145.825
BEESAT 02 Feb 01:32:19 01:36:53 44° 262° (W) 01:41:27 436.000
M-CUBED/EXP-1 PRIME 02 Feb 01:33:04 01:35:54 21° 60° (ENE) 01:38:40 437.505
GONETS M04 02 Feb 01:34:15 01:43:01 89° 106° (ESE) 01:51:48
ITUPSAT 1 02 Feb 01:38:59 01:43:27 39° 263° (W) 01:47:57 437.325
Oscar 19 02 Feb 01:50:54 01:56:02 60° 101° (ESE) 02:01:06 437.125/150
Gurwin Techsat 1B 02 Feb 01:58:48 02:02:42 21° 89° (E) 02:06:43 435.225
AUBIESAT-1 02 Feb 02:02:03 02:05:30 36° 64° (ENE) 02:08:46 437.475
STARS 02 Feb 02:06:36 02:11:02 68° 72° (ENE) 02:15:30 437.465
O/OREOS (USA 219) 02 Feb 02:09:39 02:13:37 29° 254° (WSW) 02:17:33 437.305
RS-15 02 Feb 02:15:45 02:16:14 10° 93° (E) 02:17:46 29.354- 29.394
ITAMSAT 1 02 Feb 02:16:20 02:21:13 38° 96° (E) 02:26:06 435.822/435.867
KKS-1 02 Feb 02:22:26 02:26:54 60° 259° (W) 02:31:23 437.445
